Time,TemperatureF,DewpointF,PressureIn,WindDirection,WindDirectionDegrees,WindSpeedMPH,WindSpeedGustMPH,Humidity,HourlyPrecipIn,Conditions,Clouds,dailyrainin,SoftwareType,DateUTC
2013-03-21 00:00:00,29.0,29.0,27.73,ENE,67,5.0,5.0,100,0.00,,,0.00,Rainwise IP-100,2013-03-21 04:00:00,
2013-03-21 00:05:00,29.0,29.0,27.73,East,90,0.0,6.0,100,0.00,,,0.00,Rainwise IP-100,2013-03-21 04:05:00,
2013-03-21 00:06:00,29.0,29.0,27.73,East,90,0.0,1.0,100,0.00,,,0.00,Rainwise IP-100,2013-03-21 04:06:00,
2013-03-21 00:11:00,29.0,29.0,27.73,SW,225,0.0,5.0,100,0.00,,,0.00,Rainwise IP-100,2013-03-21 04:11:00,
2013-03-21 00:16:00,29.0,29.0,27.73,East,90,1.0,5.0,100,0.00,,,0.00,Rainwise IP-100,2013-03-21 04:16:00,
2013-03-21 00:21:00,29.0,29.0,27.73,SW,225,0.0,5.0,100,0.00,,,0.00,Rainwise IP-100,2013-03-21 04:21:00,
2013-03-21 00:26:00,29.0,29.0,27.73,West,270,4.0,13.0,100,0.00,,,0.00,Rainwise IP-100,2013-03-21 04:26:00,
2013-03-21 00:31:00,29.0,29.0,27.73,East,90,0.0,5.0,100,0.00,,,0.00,Rainwise IP-100,2013-03-21 04:31:00,
2013-03-21 00:36:00,29.0,29.0,27.73,SSE,157,3.0,4.0,100,0.00,,,0.00,Rainwise IP-100,2013-03-21 04:36:00,
2013-03-21 00:41:00,29.0,29.0,27.71,SSW,202,0.0,6.0,100,0.00,,,0.00,Rainwise IP-100,2013-03-21 04:41:00,
2013-03-21 00:46:00,29.0,29.0,27.71,SSW,202,2.0,7.0,100,0.00,,,0.00,Rainwise IP-100,2013-03-21 04:46:00,
2013-03-21 00:51:00,29.0,29.0,27.71,SSW,202,0.0,10.0,100,0.00,,,0.00,Rainwise IP-100,2013-03-21 04:51:00,
2013-03-21 00:56:00,29.0,29.0,27.71,WNW,292,1.0,9.0,100,0.00,,,0.00,Rainwise IP-100,2013-03-21 04:56:00,
2013-03-21 01:01:00,29.0,29.0,27.71,SSW,202,3.0,10.0,100,0.00,,,0.00,Rainwise IP-100,2013-03-21 05:01:00,
2013-03-21 01:06:00,28.0,28.0,27.71,NNW,337,0.0,8.0,100,0.00,,,0.00,Rainwise IP-100,2013-03-21 05:06:00,
2013-03-21 01:11:00,28.0,28.0,27.71,SSE,157,0.0,6.0,100,0.00,,,0.00,Rainwise IP-100,2013-03-21 05:11:00,
2013-03-21 01:16:00,28.0,28.0,27.71,SE,135,2.0,8.0,100,0.00,,,0.00,Rainwise IP-100,2013-03-21 05:16:00,
2013-03-21 01:22:00,28.0,28.0,27.70,SSE,157,1.0,18.0,100,0.00,,,0.00,Rainwise IP-100,2013-03-21 05:22:00,
2013-03-21 01:26:00,28.0,28.0,27.70,SW,225,0.0,6.0,100,0.00,,,0.00,Rainwise IP-100,2013-03-21 05:26:00,
2013-03-21 01:31:00,28.0,28.0,27.69,SSW,202,7.0,12.0,100,0.00,,,0.00,Rainwise IP-100,2013-03-21 05:31:00,
2013-03-21 01:36:00,28.0,28.0,27.69,SSE,157,1.0,12.0,100,0.00,,,0.00,Rainwise IP-100,2013-03-21 05:36:00,
2013-03-21 01:41:00,28.0,28.0,27.69,SSE,157,3.0,9.0,100,0.00,,,0.00,Rainwise IP-100,2013-03-21 05:41:00,
2013-03-21 01:46:00,28.0,28.0,27.69,ESE,112,6.0,10.0,100,0.00,,,0.00,Rainwise IP-100,2013-03-21 05:46:00,
2013-03-21 01:51:00,28.0,28.0,27.68,SSE,157,0.0,18.0,100,0.00,,,0.00,Rainwise IP-100,2013-03-21 05:51:00,
2013-03-21 01:56:00,28.0,28.0,27.68,WSW,247,1.0,9.0,100,0.00,,,0.00,Rainwise IP-100,2013-03-21 05:56:00,
2013-03-21 02:01:00,28.0,28.0,27.68,SSW,202,3.0,6.0,100,0.00,,,0.00,Rainwise IP-100,2013-03-21 06:01:00,
2013-03-21 02:06:00,28.0,28.0,27.68,SSW,202,2.0,8.0,100,0.00,,,0.00,Rainwise IP-100,2013-03-21 06:06:00,
2013-03-21 02:11:00,28.0,28.0,27.68,South,180,2.0,6.0,100,0.00,,,0.00,Rainwise IP-100,2013-03-21 06:11:00,
2013-03-21 02:16:00,28.0,28.0,27.68,NE,45,3.0,5.0,100,0.00,,,0.00,Rainwise IP-100,2013-03-21 06:16:00,
2013-03-21 02:21:00,28.0,28.0,27.67,West,270,4.0,9.0,100,0.00,,,0.00,Rainwise IP-100,2013-03-21 06:21:00,
2013-03-21 02:26:00,28.0,28.0,27.67,SSE,157,8.0,15.0,100,0.00,,,0.00,Rainwise IP-100,2013-03-21 06:26:00,
2013-03-21 02:31:00,28.0,28.0,27.67,WSW,247,2.0,14.0,100,0.00,,,0.00,Rainwise IP-100,2013-03-21 06:31:00,
2013-03-21 02:36:00,28.0,28.0,27.67,SW,225,3.0,4.0,100,0.00,,,0.00,Rainwise IP-100,2013-03-21 06:36:00,
2013-03-21 02:42:00,27.0,28.0,27.67,WNW,292,2.0,8.0,100,0.00,,,0.00,Rainwise IP-100,2013-03-21 06:42:00,
2013-03-21 02:47:00,27.0,28.0,27.67,ESE,112,0.0,8.0,100,0.00,,,0.00,Rainwise IP-100,2013-03-21 06:47:00,
2013-03-21 02:52:00,27.0,28.0,27.68,SE,135,2.0,7.0,100,0.00,,,0.00,Rainwise IP-100,2013-03-21 06:52:00,
2013-03-21 02:57:00,27.0,28.0,27.66,SSW,202,1.0,7.0,100,0.00,,,0.00,Rainwise IP-100,2013-03-21 06:57:00,
2013-03-21 03:02:00,27.0,28.0,27.66,WSW,247,1.0,9.0,100,0.00,,,0.00,Rainwise IP-100,2013-03-21 07:02:00,
2013-03-21 03:07:00,27.0,28.0,27.65,SW,225,1.0,4.0,100,0.00,,,0.00,Rainwise IP-100,2013-03-21 07:07:00,
2013-03-21 03:12:00,26.0,26.0,27.65,SE,135,1.0,12.0,100,0.00,,,0.00,Rainwise IP-100,2013-03-21 07:12:00,
2013-03-21 03:17:00,27.0,28.0,27.65,NE,45,0.0,10.0,99,0.00,,,0.00,Rainwise IP-100,2013-03-21 07:17:00,
2013-03-21 03:22:00,26.0,26.0,27.65,SSE,157,1.0,10.0,99,0.00,,,0.00,Rainwise IP-100,2013-03-21 07:22:00,
2013-03-21 03:27:00,26.0,26.0,27.66,WSW,247,0.0,10.0,98,0.00,,,0.00,Rainwise IP-100,2013-03-21 07:27:00,
2013-03-21 03:32:00,26.0,24.0,27.66,West,270,0.0,13.0,94,0.00,,,0.00,Rainwise IP-100,2013-03-21 07:32:00,
2013-03-21 03:37:00,26.0,24.0,27.64,West,270,4.0,7.0,92,0.00,,,0.00,Rainwise IP-100,2013-03-21 07:37:00,
2013-03-21 03:42:00,26.0,24.0,27.64,SSW,202,3.0,8.0,96,0.00,,,0.00,Rainwise IP-100,2013-03-21 07:42:00,
2013-03-21 03:47:00,26.0,24.0,27.64,WNW,292,5.0,8.0,93,0.00,,,0.00,Rainwise IP-100,2013-03-21 07:47:00,
2013-03-21 03:52:00,26.0,24.0,27.64,WSW,247,6.0,10.0,93,0.00,,,0.00,Rainwise IP-100,2013-03-21 07:52:00,
2013-03-21 03:57:00,26.0,23.0,27.64,WNW,292,3.0,12.0,89,0.00,,,0.00,Rainwise IP-100,2013-03-21 07:57:00,
2013-03-21 04:02:00,25.0,24.0,27.64,ESE,112,0.0,8.0,91,0.00,,,0.00,Rainwise IP-100,2013-03-21 08:02:00,
2013-03-21 04:07:00,25.0,23.0,27.64,WSW,247,3.0,10.0,88,0.00,,,0.00,Rainwise IP-100,2013-03-21 08:07:00,
2013-03-21 04:12:00,25.0,21.0,27.64,ESE,112,0.0,11.0,82,0.00,,,0.00,Rainwise IP-100,2013-03-21 08:12:00,
2013-03-21 04:17:00,25.0,23.0,27.64,SE,135,3.0,8.0,83,0.00,,,0.00,Rainwise IP-100,2013-03-21 08:17:00,
2013-03-21 04:22:00,25.0,21.0,27.64,SSW,202,3.0,10.0,79,0.00,,,0.00,Rainwise IP-100,2013-03-21 08:22:00,
2013-03-21 04:27:00,25.0,21.0,27.64,WSW,247,3.0,9.0,78,0.00,,,0.00,Rainwise IP-100,2013-03-21 08:27:00,
2013-03-21 04:32:00,24.0,18.0,27.64,SSE,157,5.0,8.0,77,0.00,,,0.00,Rainwise IP-100,2013-03-21 08:32:00,
2013-03-21 04:37:00,24.0,18.0,27.64,WSW,247,6.0,9.0,77,0.00,,,0.00,Rainwise IP-100,2013-03-21 08:37:00,
2013-03-21 04:42:00,24.0,18.0,27.64,SW,225,3.0,15.0,75,0.00,,,0.00,Rainwise IP-100,2013-03-21 08:42:00,
2013-03-21 04:47:00,24.0,16.0,27.65,WSW,247,0.0,10.0,73,0.00,,,0.00,Rainwise IP-100,2013-03-21 08:47:00,
2013-03-21 04:52:00,24.0,18.0,27.65,SSW,202,8.0,8.0,77,0.00,,,0.00,Rainwise IP-100,2013-03-21 08:52:00,
2013-03-21 04:57:00,24.0,18.0,27.66,NE,45,2.0,9.0,75,0.00,,,0.00,Rainwise IP-100,2013-03-21 08:57:00,
2013-03-21 05:02:00,23.0,16.0,27.66,WNW,292,1.0,4.0,76,0.00,,,0.00,Rainwise IP-100,2013-03-21 09:02:00,
2013-03-21 05:07:00,23.0,16.0,27.66,SSW,202,3.0,4.0,76,0.00,,,0.00,Rainwise IP-100,2013-03-21 09:07:00,
2013-03-21 05:12:00,23.0,16.0,27.66,NNE,22,0.0,5.0,76,0.00,,,0.00,Rainwise IP-100,2013-03-21 09:12:00,
2013-03-21 05:17:00,23.0,16.0,27.66,South,180,0.0,3.0,76,0.00,,,0.00,Rainwise IP-100,2013-03-21 09:17:00,
2013-03-21 05:22:00,23.0,16.0,27.66,NNW,337,0.0,6.0,73,0.00,,,0.00,Rainwise IP-100,2013-03-21 09:22:00,
2013-03-21 05:27:00,23.0,16.0,27.65,South,180,0.0,4.0,75,0.00,,,0.00,Rainwise IP-100,2013-03-21 09:27:00,
2013-03-21 05:32:00,22.0,16.0,27.65,South,180,2.0,7.0,74,0.00,,,0.00,Rainwise IP-100,2013-03-21 09:32:00,
2013-03-21 05:37:00,23.0,16.0,27.64,East,90,5.0,8.0,73,0.00,,,0.00,Rainwise IP-100,2013-03-21 09:37:00,
2013-03-21 05:42:00,22.0,16.0,27.64,West,270,0.0,5.0,74,0.00,,,0.00,Rainwise IP-100,2013-03-21 09:42:00,
2013-03-21 05:47:00,22.0,16.0,27.65,SW,225,0.0,5.0,74,0.00,,,0.00,Rainwise IP-100,2013-03-21 09:47:00,
2013-03-21 05:52:00,22.0,16.0,27.65,SSW,202,0.0,3.0,75,0.00,,,0.00,Rainwise IP-100,2013-03-21 09:52:00,
2013-03-21 05:57:00,22.0,16.0,27.65,South,180,0.0,7.0,75,0.00,,,0.00,Rainwise IP-100,2013-03-21 09:57:00,
2013-03-21 06:02:00,22.0,16.0,27.65,NE,45,0.0,4.0,76,0.00,,,0.00,Rainwise IP-100,2013-03-21 10:02:00,
2013-03-21 06:07:00,22.0,16.0,27.66,WSW,247,1.0,8.0,74,0.00,,,0.00,Rainwise IP-100,2013-03-21 10:07:00,
2013-03-21 06:12:00,22.0,16.0,27.66,ESE,112,1.0,6.0,73,0.00,,,0.00,Rainwise IP-100,2013-03-21 10:12:00,
2013-03-21 06:17:00,22.0,16.0,27.66,West,270,1.0,6.0,74,0.00,,,0.00,Rainwise IP-100,2013-03-21 10:17:00,
2013-03-21 06:22:00,21.0,14.0,27.66,SW,225,3.0,4.0,75,0.00,,,0.00,Rainwise IP-100,2013-03-21 10:22:00,
2013-03-21 06:27:00,21.0,14.0,27.67,SSE,157,0.0,6.0,74,0.00,,,0.00,Rainwise IP-100,2013-03-21 10:27:00,
2013-03-21 06:32:00,21.0,14.0,27.67,NNE,22,4.0,5.0,74,0.00,,,0.00,Rainwise IP-100,2013-03-21 10:32:00,
2013-03-21 06:37:00,21.0,14.0,27.67,SSE,157,0.0,6.0,76,0.00,,,0.00,Rainwise IP-100,2013-03-21 10:37:00,
2013-03-21 06:42:00,21.0,14.0,27.67,SSW,202,4.0,12.0,77,0.00,,,0.00,Rainwise IP-100,2013-03-21 10:42:00,
2013-03-21 06:47:00,21.0,14.0,27.67,East,90,0.0,6.0,77,0.00,,,0.00,Rainwise IP-100,2013-03-21 10:47:00,
2013-03-21 06:52:00,20.0,16.0,27.67,SSW,202,0.0,7.0,78,0.00,,,0.00,Rainwise IP-100,2013-03-21 10:52:00,
2013-03-21 06:57:00,21.0,16.0,27.66,ESE,112,0.0,14.0,79,0.00,,,0.00,Rainwise IP-100,2013-03-21 10:57:00,
2013-03-21 07:02:00,20.0,16.0,27.66,SSE,157,1.0,3.0,80,0.00,,,0.00,Rainwise IP-100,2013-03-21 11:02:00,
2013-03-21 07:07:00,20.0,16.0,27.67,SSE,157,0.0,5.0,79,0.00,,,0.00,Rainwise IP-100,2013-03-21 11:07:00,
2013-03-21 07:12:00,20.0,16.0,27.67,SSW,202,3.0,3.0,80,0.00,,,0.00,Rainwise IP-100,2013-03-21 11:12:00,
2013-03-21 07:17:00,20.0,16.0,27.67,SSW,202,1.0,5.0,80,0.00,,,0.00,Rainwise IP-100,2013-03-21 11:17:00,
2013-03-21 07:22:00,20.0,16.0,27.67,West,270,0.0,6.0,80,0.00,,,0.00,Rainwise IP-100,2013-03-21 11:22:00,
2013-03-21 07:27:00,20.0,16.0,27.68,SSW,202,3.0,4.0,81,0.00,,,0.00,Rainwise IP-100,2013-03-21 11:27:00,
2013-03-21 07:32:00,20.0,16.0,27.68,SW,225,0.0,7.0,80,0.00,,,0.00,Rainwise IP-100,2013-03-21 11:32:00,
2013-03-21 07:37:00,20.0,16.0,27.69,SSW,202,2.0,3.0,82,0.00,,,0.00,Rainwise IP-100,2013-03-21 11:37:00,
2013-03-21 07:42:00,19.0,16.0,27.69,SE,135,0.0,3.0,82,0.00,,,0.00,Rainwise IP-100,2013-03-21 11:42:00,
2013-03-21 07:47:00,20.0,16.0,27.69,WNW,292,0.0,2.0,81,0.00,,,0.00,Rainwise IP-100,2013-03-21 11:47:00,
2013-03-21 07:52:00,20.0,16.0,27.69,West,270,0.0,6.0,82,0.00,,,0.00,Rainwise IP-100,2013-03-21 11:52:00,
2013-03-21 07:57:00,20.0,16.0,27.68,SSE,157,0.0,5.0,80,0.00,,,0.00,Rainwise IP-100,2013-03-21 11:57:00,
2013-03-21 08:02:00,20.0,16.0,27.68,SSW,202,0.0,11.0,81,0.00,,,0.00,Rainwise IP-100,2013-03-21 12:02:00,
2013-03-21 08:07:00,20.0,16.0,27.69,WSW,247,1.0,9.0,81,0.00,,,0.00,Rainwise IP-100,2013-03-21 12:07:00,
2013-03-21 08:12:00,20.0,16.0,27.69,SSW,202,1.0,4.0,81,0.00,,,0.00,Rainwise IP-100,2013-03-21 12:12:00,
2013-03-21 08:17:00,20.0,16.0,27.70,ESE,112,2.0,8.0,81,0.00,,,0.00,Rainwise IP-100,2013-03-21 12:17:00,
2013-03-21 08:22:00,20.0,16.0,27.70,SE,135,1.0,5.0,81,0.00,,,0.00,Rainwise IP-100,2013-03-21 12:22:00,
2013-03-21 08:27:00,20.0,16.0,27.70,WNW,292,0.0,5.0,82,0.00,,,0.00,Rainwise IP-100,2013-03-21 12:27:00,
2013-03-21 08:32:00,20.0,16.0,27.70,SSW,202,5.0,11.0,81,0.00,,,0.00,Rainwise IP-100,2013-03-21 12:32:00,
2013-03-21 08:37:00,21.0,16.0,27.70,WSW,247,1.0,10.0,82,0.00,,,0.00,Rainwise IP-100,2013-03-21 12:37:00,
2013-03-21 08:42:00,21.0,16.0,27.70,WNW,292,2.0,4.0,83,0.00,,,0.00,Rainwise IP-100,2013-03-21 12:42:00,
2013-03-21 08:47:00,21.0,16.0,27.72,WSW,247,0.0,6.0,79,0.00,,,0.00,Rainwise IP-100,2013-03-21 12:47:00,
2013-03-21 08:52:00,21.0,16.0,27.72,SW,225,0.0,8.0,79,0.00,,,0.00,Rainwise IP-100,2013-03-21 12:52:00,
2013-03-21 08:57:00,22.0,18.0,27.72,West,270,0.0,4.0,80,0.00,,,0.00,Rainwise IP-100,2013-03-21 12:57:00,
2013-03-21 09:02:00,22.0,16.0,27.72,West,270,1.0,10.0,79,0.00,,,0.00,Rainwise IP-100,2013-03-21 13:02:00,
2013-03-21 09:07:00,21.0,16.0,27.72,WSW,247,2.0,10.0,79,0.00,,,0.00,Rainwise IP-100,2013-03-21 13:07:00,
2013-03-21 09:12:00,21.0,16.0,27.72,North,360,0.0,7.0,81,0.00,,,0.00,Rainwise IP-100,2013-03-21 13:12:00,
2013-03-21 09:17:00,22.0,18.0,27.71,WNW,292,3.0,3.0,80,0.00,,,0.00,Rainwise IP-100,2013-03-21 13:17:00,
2013-03-21 09:22:00,22.0,16.0,27.71,NNE,22,0.0,7.0,75,0.00,,,0.00,Rainwise IP-100,2013-03-21 13:22:00,
2013-03-21 09:27:00,22.0,16.0,27.72,NW,315,0.0,6.0,77,0.00,,,0.00,Rainwise IP-100,2013-03-21 13:27:00,
2013-03-21 09:32:00,23.0,16.0,27.72,West,270,1.0,5.0,75,0.00,,,0.00,Rainwise IP-100,2013-03-21 13:32:00,
2013-03-21 09:37:00,24.0,16.0,27.72,ENE,67,1.0,12.0,70,0.00,,,0.00,Rainwise IP-100,2013-03-21 13:37:00,
2013-03-21 09:42:00,24.0,16.0,27.72,South,180,1.0,6.0,73,0.00,,,0.00,Rainwise IP-100,2013-03-21 13:42:00,
2013-03-21 09:47:00,24.0,16.0,27.72,WNW,292,2.0,9.0,72,0.00,,,0.00,Rainwise IP-100,2013-03-21 13:47:00,
2013-03-21 09:52:00,25.0,18.0,27.72,ENE,67,3.0,9.0,74,0.00,,,0.00,Rainwise IP-100,2013-03-21 13:52:00,
2013-03-21 09:57:00,26.0,18.0,27.73,SW,225,4.0,8.0,69,0.00,,,0.00,Rainwise IP-100,2013-03-21 13:57:00,
2013-03-21 10:02:00,23.0,16.0,27.73,SW,225,3.0,12.0,73,0.00,,,0.00,Rainwise IP-100,2013-03-21 14:02:00,
2013-03-21 10:07:00,23.0,16.0,27.74,WNW,292,1.0,7.0,71,0.00,,,0.00,Rainwise IP-100,2013-03-21 14:07:00,
2013-03-21 10:12:00,24.0,16.0,27.74,SSE,157,0.0,8.0,71,0.00,,,0.00,Rainwise IP-100,2013-03-21 14:12:00,
2013-03-21 10:17:00,24.0,16.0,27.74,WSW,247,0.0,6.0,71,0.00,,,0.00,Rainwise IP-100,2013-03-21 14:17:00,
2013-03-21 10:22:00,24.0,16.0,27.74,WNW,292,1.0,11.0,72,0.00,,,0.00,Rainwise IP-100,2013-03-21 14:22:00,
2013-03-21 10:28:00,25.0,18.0,27.74,East,90,2.0,5.0,70,0.00,,,0.00,Rainwise IP-100,2013-03-21 14:28:00,
2013-03-21 10:33:00,25.0,18.0,27.74,WNW,292,0.0,5.0,69,0.00,,,0.00,Rainwise IP-100,2013-03-21 14:33:00,
2013-03-21 10:38:00,25.0,18.0,27.74,South,180,3.0,5.0,68,0.00,,,0.00,Rainwise IP-100,2013-03-21 14:38:00,
2013-03-21 10:43:00,24.0,16.0,27.74,WSW,247,9.0,9.0,71,0.06,,,0.01,Rainwise IP-100,2013-03-21 14:43:00,
2013-03-21 10:48:00,24.0,16.0,27.75,SSW,202,1.0,10.0,69,0.06,,,0.01,Rainwise IP-100,2013-03-21 14:48:00,
2013-03-21 10:53:00,25.0,18.0,27.75,SW,225,2.0,9.0,74,0.00,,,0.01,Rainwise IP-100,2013-03-21 14:53:00,
2013-03-21 10:58:00,26.0,18.0,27.74,SW,225,1.0,4.0,69,0.00,,,0.01,Rainwise IP-100,2013-03-21 14:58:00,
2013-03-21 11:03:00,26.0,18.0,27.74,ENE,67,0.0,8.0,73,0.00,,,0.01,Rainwise IP-100,2013-03-21 15:03:00,
2013-03-21 11:08:00,26.0,16.0,27.74,West,270,2.0,4.0,66,0.00,,,0.01,Rainwise IP-100,2013-03-21 15:08:00,
2013-03-21 11:13:00,26.0,16.0,27.74,SSW,202,1.0,7.0,66,0.00,,,0.01,Rainwise IP-100,2013-03-21 15:13:00,
2013-03-21 11:18:00,27.0,18.0,27.74,SW,225,4.0,8.0,68,0.00,,,0.01,Rainwise IP-100,2013-03-21 15:18:00,
2013-03-21 11:23:00,27.0,21.0,27.74,WSW,247,2.0,7.0,70,0.00,,,0.01,Rainwise IP-100,2013-03-21 15:23:00,
2013-03-21 11:28:00,26.0,16.0,27.74,WNW,292,0.0,8.0,67,0.00,,,0.01,Rainwise IP-100,2013-03-21 15:28:00,
2013-03-21 11:33:00,26.0,16.0,27.74,NW,315,4.0,9.0,64,0.00,,,0.01,Rainwise IP-100,2013-03-21 15:33:00,
2013-03-21 11:38:00,27.0,18.0,27.74,West,270,5.0,9.0,67,0.00,,,0.01,Rainwise IP-100,2013-03-21 15:38:00,
2013-03-21 11:43:00,27.0,18.0,27.74,SE,135,1.0,8.0,67,0.00,,,0.01,Rainwise IP-100,2013-03-21 15:43:00,
2013-03-21 11:48:00,27.0,16.0,27.74,WSW,247,4.0,10.0,63,0.00,,,0.01,Rainwise IP-100,2013-03-21 15:48:00,
2013-03-21 11:53:00,27.0,18.0,27.74,West,270,1.0,9.0,65,0.00,,,0.01,Rainwise IP-100,2013-03-21 15:53:00,
2013-03-21 11:58:00,27.0,16.0,27.74,West,270,8.0,8.0,63,0.00,,,0.01,Rainwise IP-100,2013-03-21 15:58:00,
2013-03-21 12:03:00,28.0,16.0,27.74,WNW,292,3.0,9.0,63,0.00,,,0.01,Rainwise IP-100,2013-03-21 16:03:00,
2013-03-21 12:08:00,28.0,18.0,27.73,West,270,3.0,8.0,64,0.00,,,0.01,Rainwise IP-100,2013-03-21 16:08:00,
2013-03-21 12:13:00,28.0,18.0,27.73,WSW,247,5.0,9.0,65,0.00,,,0.01,Rainwise IP-100,2013-03-21 16:13:00,
2013-03-21 12:18:00,28.0,16.0,27.73,West,270,0.0,8.0,62,0.00,,,0.01,Rainwise IP-100,2013-03-21 16:18:00,
2013-03-21 12:23:00,29.0,18.0,27.73,NE,45,3.0,8.0,60,0.00,,,0.01,Rainwise IP-100,2013-03-21 16:23:00,
2013-03-21 12:28:00,27.0,16.0,27.75,NW,315,0.0,13.0,62,0.00,,,0.01,Rainwise IP-100,2013-03-21 16:28:00,
2013-03-21 12:33:00,28.0,16.0,27.75,SSW,202,3.0,11.0,60,0.00,,,0.01,Rainwise IP-100,2013-03-21 16:33:00,
2013-03-21 12:38:00,29.0,18.0,27.74,WSW,247,4.0,6.0,62,0.00,,,0.01,Rainwise IP-100,2013-03-21 16:38:00,
2013-03-21 12:43:00,29.0,18.0,27.74,SW,225,3.0,10.0,62,0.00,,,0.01,Rainwise IP-100,2013-03-21 16:43:00,
2013-03-21 12:48:00,30.0,18.0,27.73,West,270,0.0,9.0,58,0.00,,,0.01,Rainwise IP-100,2013-03-21 16:48:00,
2013-03-21 12:53:00,30.0,18.0,27.73,South,180,4.0,16.0,57,0.00,,,0.01,Rainwise IP-100,2013-03-21 16:53:00,
2013-03-21 12:58:00,29.0,16.0,27.72,WSW,247,8.0,9.0,55,0.00,,,0.01,Rainwise IP-100,2013-03-21 16:58:00,
2013-03-21 13:03:00,29.0,18.0,27.72,NW,315,3.0,13.0,62,0.00,,,0.01,Rainwise IP-100,2013-03-21 17:03:00,
2013-03-21 13:08:00,29.0,16.0,27.73,NNE,22,5.0,13.0,57,0.00,,,0.01,Rainwise IP-100,2013-03-21 17:08:00,
2013-03-21 13:13:00,30.0,16.0,27.73,WSW,247,1.0,10.0,55,0.00,,,0.01,Rainwise IP-100,2013-03-21 17:13:00,
2013-03-21 13:18:00,29.0,16.0,27.72,WNW,292,2.0,10.0,55,0.00,,,0.01,Rainwise IP-100,2013-03-21 17:18:00,
2013-03-21 13:23:00,30.0,16.0,27.72,NW,315,0.0,10.0,55,0.00,,,0.01,Rainwise IP-100,2013-03-21 17:23:00,
2013-03-21 13:28:00,30.0,16.0,27.70,West,270,2.0,7.0,53,0.00,,,0.01,Rainwise IP-100,2013-03-21 17:28:00,
2013-03-21 13:33:00,31.0,18.0,27.70,SE,135,3.0,8.0,56,0.00,,,0.01,Rainwise IP-100,2013-03-21 17:33:00,
2013-03-21 13:38:00,32.0,18.0,27.70,WNW,292,2.0,8.0,57,0.00,,,0.01,Rainwise IP-100,2013-03-21 17:38:00,
2013-03-21 13:43:00,33.0,18.0,27.70,West,270,3.0,5.0,51,0.00,,,0.01,Rainwise IP-100,2013-03-21 17:43:00,
2013-03-21 13:48:00,32.0,16.0,27.70,NW,315,0.0,8.0,52,0.00,,,0.01,Rainwise IP-100,2013-03-21 17:48:00,
2013-03-21 13:53:00,32.0,16.0,27.70,WNW,292,2.0,12.0,49,0.00,,,0.01,Rainwise IP-100,2013-03-21 17:53:00,
2013-03-21 13:58:00,33.0,18.0,27.70,WNW,292,2.0,7.0,51,0.00,,,0.01,Rainwise IP-100,2013-03-21 17:58:00,
2013-03-21 14:03:00,32.0,18.0,27.70,WNW,292,3.0,9.0,53,0.00,,,0.01,Rainwise IP-100,2013-03-21 18:03:00,
2013-03-21 14:08:00,32.0,18.0,27.70,SSW,202,3.0,8.0,54,0.00,,,0.01,Rainwise IP-100,2013-03-21 18:08:00,
2013-03-21 14:13:00,33.0,16.0,27.70,East,90,3.0,11.0,49,0.00,,,0.01,Rainwise IP-100,2013-03-21 18:13:00,
2013-03-21 14:18:00,33.0,16.0,27.69,NNW,337,3.0,10.0,48,0.00,,,0.01,Rainwise IP-100,2013-03-21 18:18:00,
2013-03-21 14:23:00,33.0,16.0,27.69,WNW,292,0.0,7.0,47,0.00,,,0.01,Rainwise IP-100,2013-03-21 18:23:00,
2013-03-21 14:28:00,33.0,16.0,27.69,WSW,247,0.0,8.0,49,0.00,,,0.01,Rainwise IP-100,2013-03-21 18:28:00,
2013-03-21 14:33:00,33.0,16.0,27.69,SW,225,6.0,8.0,47,0.00,,,0.01,Rainwise IP-100,2013-03-21 18:33:00,
2013-03-21 14:38:00,33.0,16.0,27.69,West,270,2.0,10.0,47,0.00,,,0.01,Rainwise IP-100,2013-03-21 18:38:00,
2013-03-21 14:43:00,34.0,16.0,27.69,WSW,247,0.0,6.0,46,0.00,,,0.01,Rainwise IP-100,2013-03-21 18:43:00,
2013-03-21 14:48:00,35.0,16.0,27.68,NW,315,3.0,8.0,44,0.00,,,0.01,Rainwise IP-100,2013-03-21 18:48:00,
2013-03-21 14:53:00,34.0,16.0,27.68,NE,45,4.0,11.0,47,0.00,,,0.01,Rainwise IP-100,2013-03-21 18:53:00,
2013-03-21 14:58:00,33.0,16.0,27.69,WNW,292,11.0,11.0,46,0.00,,,0.01,Rainwise IP-100,2013-03-21 18:58:00,
2013-03-21 15:03:00,34.0,16.0,27.69,WSW,247,4.0,13.0,47,0.00,,,0.01,Rainwise IP-100,2013-03-21 19:03:00,
2013-03-21 15:08:00,33.0,14.0,27.70,WSW,247,0.0,10.0,43,0.00,,,0.01,Rainwise IP-100,2013-03-21 19:08:00,
2013-03-21 15:13:00,34.0,16.0,27.70,WSW,247,4.0,9.0,44,0.00,,,0.01,Rainwise IP-100,2013-03-21 19:13:00,
2013-03-21 15:18:00,33.0,16.0,27.69,WSW,247,1.0,16.0,45,0.00,,,0.01,Rainwise IP-100,2013-03-21 19:18:00,
2013-03-21 15:23:00,34.0,16.0,27.69,ENE,67,4.0,9.0,43,0.00,,,0.01,Rainwise IP-100,2013-03-21 19:23:00,
2013-03-21 15:28:00,35.0,14.0,27.69,West,270,3.0,7.0,41,0.00,,,0.01,Rainwise IP-100,2013-03-21 19:28:00,
2013-03-21 15:33:00,34.0,14.0,27.69,West,270,3.0,15.0,41,0.00,,,0.01,Rainwise IP-100,2013-03-21 19:33:00,
2013-03-21 15:38:00,34.0,14.0,27.70,West,270,7.0,8.0,42,0.00,,,0.01,Rainwise IP-100,2013-03-21 19:38:00,
2013-03-21 15:43:00,35.0,16.0,27.70,SSW,202,0.0,9.0,44,0.00,,,0.01,Rainwise IP-100,2013-03-21 19:43:00,
2013-03-21 15:48:00,36.0,14.0,27.70,WSW,247,4.0,4.0,39,0.00,,,0.01,Rainwise IP-100,2013-03-21 19:48:00,
2013-03-21 15:53:00,35.0,14.0,27.70,ENE,67,2.0,11.0,41,0.00,,,0.01,Rainwise IP-100,2013-03-21 19:53:00,
2013-03-21 15:58:00,36.0,16.0,27.69,North,360,1.0,8.0,42,0.00,,,0.01,Rainwise IP-100,2013-03-21 19:58:00,
2013-03-21 16:03:00,36.0,14.0,27.69,NW,315,0.0,7.0,39,0.00,,,0.01,Rainwise IP-100,2013-03-21 20:03:00,
2013-03-21 16:08:00,36.0,16.0,27.70,SSE,157,2.0,6.0,41,0.00,,,0.01,Rainwise IP-100,2013-03-21 20:08:00,
2013-03-21 16:13:00,36.0,16.0,27.70,ENE,67,5.0,9.0,41,0.00,,,0.01,Rainwise IP-100,2013-03-21 20:13:00,
2013-03-21 16:18:00,35.0,14.0,27.70,NW,315,4.0,8.0,41,0.00,,,0.01,Rainwise IP-100,2013-03-21 20:18:00,
2013-03-21 16:23:00,35.0,14.0,27.70,ENE,67,2.0,9.0,42,0.00,,,0.01,Rainwise IP-100,2013-03-21 20:23:00,
2013-03-21 16:28:00,36.0,16.0,27.72,NNE,22,1.0,10.0,43,0.00,,,0.01,Rainwise IP-100,2013-03-21 20:28:00,
2013-03-21 16:33:00,37.0,16.0,27.72,NNE,22,3.0,4.0,41,0.00,,,0.01,Rainwise IP-100,2013-03-21 20:33:00,
2013-03-21 16:38:00,36.0,16.0,27.71,East,90,1.0,8.0,42,0.00,,,0.01,Rainwise IP-100,2013-03-21 20:38:00,
2013-03-21 16:43:00,35.0,14.0,27.71,WSW,247,6.0,10.0,40,0.00,,,0.01,Rainwise IP-100,2013-03-21 20:43:00,
2013-03-21 16:48:00,36.0,16.0,27.71,WNW,292,3.0,7.0,41,0.00,,,0.01,Rainwise IP-100,2013-03-21 20:48:00,
2013-03-21 16:53:00,35.0,14.0,27.71,SSW,202,3.0,7.0,39,0.00,,,0.01,Rainwise IP-100,2013-03-21 20:53:00,
2013-03-21 16:58:00,37.0,16.0,27.71,NNW,337,1.0,7.0,41,0.00,,,0.01,Rainwise IP-100,2013-03-21 20:58:00,
2013-03-21 17:03:00,35.0,14.0,27.71,ESE,112,3.0,6.0,39,0.00,,,0.01,Rainwise IP-100,2013-03-21 21:03:00,
2013-03-21 17:08:00,36.0,14.0,27.72,NNW,337,4.0,8.0,40,0.00,,,0.01,Rainwise IP-100,2013-03-21 21:08:00,
2013-03-21 17:13:00,34.0,14.0,27.72,SW,225,1.0,16.0,41,0.00,,,0.01,Rainwise IP-100,2013-03-21 21:13:00,
2013-03-21 17:18:00,35.0,14.0,27.70,WNW,292,3.0,10.0,41,0.00,,,0.01,Rainwise IP-100,2013-03-21 21:18:00,
2013-03-21 17:23:00,34.0,16.0,27.70,West,270,5.0,10.0,43,0.00,,,0.01,Rainwise IP-100,2013-03-21 21:23:00,
2013-03-21 17:28:00,35.0,14.0,27.70,SW,225,1.0,8.0,42,0.00,,,0.01,Rainwise IP-100,2013-03-21 21:28:00,
2013-03-21 17:33:00,35.0,14.0,27.70,SSW,202,3.0,5.0,39,0.00,,,0.01,Rainwise IP-100,2013-03-21 21:33:00,
2013-03-21 17:38:00,35.0,14.0,27.70,ESE,112,3.0,5.0,41,0.00,,,0.01,Rainwise IP-100,2013-03-21 21:38:00,
2013-03-21 17:43:00,35.0,14.0,27.70,WNW,292,1.0,7.0,41,0.00,,,0.01,Rainwise IP-100,2013-03-21 21:43:00,
2013-03-21 17:49:00,34.0,14.0,27.69,SSE,157,1.0,7.0,41,0.00,,,0.01,Rainwise IP-100,2013-03-21 21:49:00,
2013-03-21 17:54:00,34.0,14.0,27.69,SE,135,1.0,6.0,41,0.00,,,0.01,Rainwise IP-100,2013-03-21 21:54:00,
2013-03-21 17:59:00,34.0,14.0,27.71,SSW,202,0.0,6.0,42,0.00,,,0.01,Rainwise IP-100,2013-03-21 21:59:00,
2013-03-21 18:04:00,34.0,16.0,27.71,West,270,5.0,8.0,43,0.00,,,0.01,Rainwise IP-100,2013-03-21 22:04:00,
2013-03-21 18:09:00,34.0,14.0,27.70,SSE,157,1.0,7.0,41,0.00,,,0.01,Rainwise IP-100,2013-03-21 22:09:00,
2013-03-21 18:14:00,34.0,14.0,27.70,SSW,202,3.0,4.0,42,0.00,,,0.01,Rainwise IP-100,2013-03-21 22:14:00,
2013-03-21 18:19:00,33.0,14.0,27.70,ESE,112,0.0,8.0,42,0.00,,,0.01,Rainwise IP-100,2013-03-21 22:19:00,
2013-03-21 18:24:00,33.0,14.0,27.70,SW,225,5.0,10.0,43,0.00,,,0.01,Rainwise IP-100,2013-03-21 22:24:00,
2013-03-21 18:29:00,33.0,14.0,27.70,SW,225,2.0,7.0,42,0.00,,,0.01,Rainwise IP-100,2013-03-21 22:29:00,
2013-03-21 18:34:00,33.0,14.0,27.70,SSW,202,0.0,7.0,43,0.00,,,0.01,Rainwise IP-100,2013-03-21 22:34:00,
2013-03-21 18:39:00,33.0,14.0,27.70,WNW,292,0.0,4.0,43,0.00,,,0.01,Rainwise IP-100,2013-03-21 22:39:00,
2013-03-21 18:44:00,33.0,14.0,27.70,SE,135,2.0,7.0,44,0.00,,,0.01,Rainwise IP-100,2013-03-21 22:44:00,
2013-03-21 18:49:00,33.0,14.0,27.71,WSW,247,3.0,3.0,44,0.00,,,0.01,Rainwise IP-100,2013-03-21 22:49:00,
2013-03-21 18:54:00,32.0,14.0,27.71,SSW,202,5.0,5.0,45,0.00,,,0.01,Rainwise IP-100,2013-03-21 22:54:00,
2013-03-21 18:59:00,32.0,14.0,27.71,SE,135,2.0,7.0,46,0.00,,,0.01,Rainwise IP-100,2013-03-21 22:59:00,
2013-03-21 19:04:00,32.0,14.0,27.71,WNW,292,0.0,6.0,45,0.00,,,0.01,Rainwise IP-100,2013-03-21 23:04:00,
2013-03-21 19:09:00,32.0,14.0,27.71,WSW,247,0.0,9.0,45,0.00,,,0.01,Rainwise IP-100,2013-03-21 23:09:00,
2013-03-21 19:14:00,32.0,14.0,27.71,NE,45,0.0,3.0,47,0.00,,,0.01,Rainwise IP-100,2013-03-21 23:14:00,
2013-03-21 19:19:00,32.0,14.0,27.72,SSE,157,1.0,1.0,45,0.00,,,0.01,Rainwise IP-100,2013-03-21 23:19:00,
2013-03-21 19:24:00,31.0,14.0,27.72,SW,225,0.0,5.0,46,0.00,,,0.01,Rainwise IP-100,2013-03-21 23:24:00,
2013-03-21 19:29:00,31.0,14.0,27.72,ENE,67,0.0,8.0,46,0.00,,,0.01,Rainwise IP-100,2013-03-21 23:29:00,
2013-03-21 19:34:00,31.0,14.0,27.72,WSW,247,0.0,4.0,47,0.00,,,0.01,Rainwise IP-100,2013-03-21 23:34:00,
2013-03-21 19:39:00,31.0,14.0,27.71,WSW,247,0.0,8.0,48,0.00,,,0.01,Rainwise IP-100,2013-03-21 23:39:00,
2013-03-21 19:44:00,30.0,14.0,27.71,SSW,202,0.0,2.0,48,0.00,,,0.01,Rainwise IP-100,2013-03-21 23:44:00,
2013-03-21 19:49:00,30.0,14.0,27.73,SE,135,0.0,3.0,49,0.00,,,0.01,Rainwise IP-100,2013-03-21 23:49:00,
2013-03-21 19:54:00,30.0,14.0,27.73,SSW,202,1.0,4.0,49,0.00,,,0.01,Rainwise IP-100,2013-03-21 23:54:00,
2013-03-21 19:59:00,30.0,14.0,27.72,SE,135,0.0,4.0,49,0.00,,,0.01,Rainwise IP-100,2013-03-21 23:59:00,
2013-03-21 20:04:00,30.0,16.0,27.72,South,180,0.0,3.0,50,0.00,,,0.01,Rainwise IP-100,2013-03-22 00:04:00,
2013-03-21 20:09:00,30.0,16.0,27.72,SSE,157,2.0,4.0,51,0.00,,,0.01,Rainwise IP-100,2013-03-22 00:09:00,
2013-03-21 20:14:00,29.0,14.0,27.72,SSW,202,0.0,3.0,51,0.00,,,0.01,Rainwise IP-100,2013-03-22 00:14:00,
2013-03-21 20:19:00,29.0,14.0,27.73,SSE,157,3.0,3.0,52,0.00,,,0.01,Rainwise IP-100,2013-03-22 00:19:00,
2013-03-21 20:24:00,29.0,14.0,27.73,South,180,0.0,6.0,52,0.00,,,0.01,Rainwise IP-100,2013-03-22 00:24:00,
2013-03-21 20:29:00,29.0,16.0,27.73,WNW,292,0.0,1.0,55,0.00,,,0.01,Rainwise IP-100,2013-03-22 00:29:00,
2013-03-21 20:34:00,28.0,14.0,27.73,NW,315,0.0,1.0,54,0.00,,,0.01,Rainwise IP-100,2013-03-22 00:34:00,
2013-03-21 20:39:00,28.0,14.0,27.74,NW,315,0.0,0.0,55,0.00,,,0.01,Rainwise IP-100,2013-03-22 00:39:00,
2013-03-21 20:44:00,27.0,16.0,27.74,ENE,67,0.0,0.0,58,0.00,,,0.01,Rainwise IP-100,2013-03-22 00:44:00,
2013-03-21 20:49:00,27.0,14.0,27.74,NNW,337,0.0,0.0,55,0.00,,,0.01,Rainwise IP-100,2013-03-22 00:49:00,
2013-03-21 20:54:00,27.0,14.0,27.74,NNE,22,2.0,4.0,55,0.00,,,0.01,Rainwise IP-100,2013-03-22 00:54:00,
2013-03-21 20:59:00,28.0,14.0,27.74,ESE,112,0.0,5.0,54,0.00,,,0.01,Rainwise IP-100,2013-03-22 00:59:00,
2013-03-21 21:04:00,28.0,14.0,27.74,NE,45,0.0,1.0,53,0.00,,,0.01,Rainwise IP-100,2013-03-22 01:04:00,
2013-03-21 21:09:00,28.0,14.0,27.74,SE,135,0.0,1.0,55,0.00,,,0.01,Rainwise IP-100,2013-03-22 01:09:00,
2013-03-21 21:14:00,28.0,16.0,27.74,SW,225,1.0,3.0,57,0.00,,,0.01,Rainwise IP-100,2013-03-22 01:14:00,
2013-03-21 21:19:00,28.0,14.0,27.74,SW,225,1.0,2.0,56,0.00,,,0.01,Rainwise IP-100,2013-03-22 01:19:00,
2013-03-21 21:24:00,28.0,14.0,27.74,East,90,0.0,3.0,55,0.00,,,0.01,Rainwise IP-100,2013-03-22 01:24:00,
2013-03-21 21:29:00,28.0,14.0,27.73,SSW,202,0.0,3.0,53,0.00,,,0.01,Rainwise IP-100,2013-03-22 01:29:00,
2013-03-21 21:34:00,28.0,14.0,27.73,SSE,157,2.0,2.0,55,0.00,,,0.01,Rainwise IP-100,2013-03-22 01:34:00,
2013-03-21 21:39:00,28.0,14.0,27.75,SSE,157,0.0,4.0,55,0.00,,,0.01,Rainwise IP-100,2013-03-22 01:39:00,
2013-03-21 21:44:00,28.0,16.0,27.75,SSW,202,0.0,1.0,57,0.00,,,0.01,Rainwise IP-100,2013-03-22 01:44:00,
2013-03-21 21:49:00,27.0,16.0,27.74,East,90,0.0,0.0,58,0.00,,,0.01,Rainwise IP-100,2013-03-22 01:49:00,
2013-03-21 21:54:00,27.0,16.0,27.74,East,90,0.0,0.0,59,0.00,,,0.01,Rainwise IP-100,2013-03-22 01:54:00,
2013-03-21 21:59:00,27.0,16.0,27.76,NNE,22,0.0,1.0,60,0.00,,,0.01,Rainwise IP-100,2013-03-22 01:59:00,
2013-03-21 22:04:00,27.0,16.0,27.76,NNW,337,0.0,3.0,59,0.00,,,0.01,Rainwise IP-100,2013-03-22 02:04:00,
2013-03-21 22:09:00,27.0,16.0,27.76,WNW,292,0.0,2.0,57,0.00,,,0.01,Rainwise IP-100,2013-03-22 02:09:00,
2013-03-21 22:14:00,27.0,16.0,27.76,NNE,22,0.0,0.0,57,0.00,,,0.01,Rainwise IP-100,2013-03-22 02:14:00,
2013-03-21 22:19:00,27.0,16.0,27.76,SSE,157,0.0,1.0,57,0.00,,,0.01,Rainwise IP-100,2013-03-22 02:19:00,
2013-03-21 22:24:00,27.0,14.0,27.76,WNW,292,0.0,2.0,56,0.00,,,0.01,Rainwise IP-100,2013-03-22 02:24:00,
2013-03-21 22:29:00,27.0,14.0,27.75,SSW,202,0.0,3.0,55,0.00,,,0.01,Rainwise IP-100,2013-03-22 02:29:00,
2013-03-21 22:34:00,27.0,14.0,27.75,SW,225,1.0,6.0,56,0.00,,,0.01,Rainwise IP-100,2013-03-22 02:34:00,
2013-03-21 22:39:00,28.0,14.0,27.77,NE,45,3.0,5.0,52,0.00,,,0.01,Rainwise IP-100,2013-03-22 02:39:00,
2013-03-21 22:44:00,28.0,14.0,27.77,ESE,112,0.0,3.0,53,0.00,,,0.01,Rainwise IP-100,2013-03-22 02:44:00,
2013-03-21 22:49:00,28.0,14.0,27.77,SSW,202,0.0,2.0,55,0.00,,,0.01,Rainwise IP-100,2013-03-22 02:49:00,
2013-03-21 22:54:00,27.0,14.0,27.77,SSW,202,0.0,0.0,56,0.00,,,0.01,Rainwise IP-100,2013-03-22 02:54:00,
2013-03-21 22:59:00,27.0,14.0,27.78,SE,135,0.0,1.0,56,0.00,,,0.01,Rainwise IP-100,2013-03-22 02:59:00,
2013-03-21 23:04:00,27.0,14.0,27.78,WNW,292,0.0,1.0,55,0.00,,,0.01,Rainwise IP-100,2013-03-22 03:04:00,
2013-03-21 23:09:00,27.0,16.0,27.77,WNW,292,0.0,0.0,58,0.00,,,0.01,Rainwise IP-100,2013-03-22 03:09:00,
2013-03-21 23:14:00,26.0,14.0,27.77,NNE,22,0.0,0.0,59,0.00,,,0.01,Rainwise IP-100,2013-03-22 03:14:00,
2013-03-21 23:19:00,26.0,14.0,27.77,WNW,292,0.0,2.0,56,0.00,,,0.01,Rainwise IP-100,2013-03-22 03:19:00,
2013-03-21 23:24:00,27.0,14.0,27.77,NE,45,1.0,3.0,56,0.00,,,0.01,Rainwise IP-100,2013-03-22 03:24:00,
2013-03-21 23:29:00,27.0,14.0,27.77,ESE,112,0.0,2.0,55,0.00,,,0.01,Rainwise IP-100,2013-03-22 03:29:00,
2013-03-21 23:34:00,27.0,14.0,27.77,SE,135,0.0,2.0,55,0.00,,,0.01,Rainwise IP-100,2013-03-22 03:34:00,
2013-03-21 23:39:00,27.0,14.0,27.78,SSE,157,0.0,4.0,55,0.00,,,0.01,Rainwise IP-100,2013-03-22 03:39:00,
2013-03-21 23:44:00,27.0,14.0,27.78,ESE,112,0.0,2.0,55,0.00,,,0.01,Rainwise IP-100,2013-03-22 03:44:00,
2013-03-21 23:49:00,27.0,14.0,27.77,SE,135,1.0,1.0,55,0.00,,,0.01,Rainwise IP-100,2013-03-22 03:49:00,
2013-03-21 23:54:00,26.0,14.0,27.77,WNW,292,0.0,1.0,60,0.00,,,0.01,Rainwise IP-100,2013-03-22 03:54:00,
2013-03-21 23:59:00,26.0,14.0,27.77,SW,225,0.0,0.0,59,0.00,,,0.01,Rainwise IP-100,2013-03-22 03:59:00,